SCP
0 0 0 0 0 0 0 0 0 0 0 0 0 0 0 0 0 0 0 0 0 0 0 0 0 0 0 0 0 0 0 0 0 0 0 0 0 0 0 0 0 0 0 0 0 0 0 0 0 0 0 0 0 0
0 0 0 0 0 0 0 0 0 0 0 0 0 0 0 0 0 0 0 0 0 0 0 0 0 -0 -0 0 0 0 0 0 0 1 1 1 0 1 1 0 0 0 0 0 0 0 0 0 0 0 0 0 0 0
0 0 0 0 0 0 0 0 0 0 0 0 0 0 0 0 0 0 0 0 0 0 0 0 0 0 0 0 -0 0 0 0 0 0 0 1 0 0 0 1 0 0 0 0 0 0 0 0 0 0 0 0 0 0
0 0 0 0 0 0 0 0 0 0 0 0 0 0 0 0 0 0 0 0 0 0 0 0 0 0 0 0 0 0 0 0 0 0 0 0 0 0 0 0 0 0 0 0 0 0 0 0 0 0 0 0 0 0
0 0 0 0 0 0 0 0 0 0 0 0 0 0 0 0 0 0 0 0 0 0 0 0 -0 0 0 0 0 0 0 0 0 0 0 0 0 0 0 0 0 0 0 0 0 1 1 0 0 0 0 0 0 0
0 0 0 0 0 0 0 0 0 0 0 0 0 0 0 0 0 0 0 0 0 0 0 0 0 0 0 0 0 0 0 0 0 0 0 -0 0 0 0 0 0 0 0 0 0 1 2 0 0 0 0 0 0 0
0 0 0 0 0 0 0 0 0 0 0 0 0 0 0 0 0 0 0 0 0 -0 -0 0 0 0 0 0 0 0 0 0 0 0 0 0 0 0 0 0 0 0 0 0 0 0 1 0 0 0 0 0 0 -0
0 0 0 0 0 0 0 0 0 0 0 0 0 0 0 0 0 0 0 0 0 0 0 0 0 0 0 0 0 0 0 0 0 0 0 0 0 0 0 0 0 0 0 0 0 0 0 0 0 0 0 0 -0 0
0 0 0 0 0 0 0 0 0 0 0 0 -0 0 0 0 0 0 0 0 0 0 -0 0 0 0 0 -0 0 0 0 0 0 0 0 0 0 0 0 0 0 0 0 0 0 0 0 0 0 0 0 0 0 0
0 0 0 0 0 0 0 0 0 0 -0 -0 0 0 0 0 -0 -0 0 0 0 0 0 0 0 0 -0 -0 0 -0 0 0 0 0 -0 0 0 0 0 0 0 0 0 0 0 0 0 0 0 0 0 0 0 0
0 0 0 0 0 0 0 0 0 0 0 0 0 0 0 -0 -0 -0 -0 -0 0 0 0 0 0 0 -0 -0 -0 -0 -0 -0 0 0 0 0 0 0 0 0 0 0 0 0 0 0 0 0 0 0 0 0 0 0
0 0 0 0 0 0 0 0 0 0 0 0 0 -0 0 0 0 0 -0 -0 0 -0 0 0 0 0 -0 -0 -0 0 -0 0 0 0 0 0 0 0 0 0 0 0 0 0 0 0 0 0 0 0 0 0 0 0
0 0 0 0 0 0 0 0 -0 -0 -0 0 0 0 0 0 0 -0 0 -0 0 0 0 0 0 0 -0 -0 -0 0 0 0 0 0 0 0 0 0 0 0 0 0 0 0 0 0 0 0 0 0 0 0 0 0
0 0 0 0 0 -0 -0 -0 -0 0 0 0 0 0 0 0 -0 0 -0 0 -0 -0 -0 -0 0 0 0 -0 -0 0 0 0 0 0 0 0 0 0 0 0 0 0 0 0 0 0 0 0 0 0 0 0 0 0
0 0 0 0 0 0 0 0 0 0 0 0 0 0 0 -0 0 0 0 0 0 0 0 0 0 0 0 0 -0 0 0 0 0 0 0 -0 -0 -0 0 0 0 0 0 0 0 0 0 0 0 0 0 0 0 0
0 0 0 0 -0 0 0 0 0 0 0 0 0 0 0 0 0 0 0 0 0 0 0 0 0 0 0 0 0 0 0 0 0 0 -0 0 -0 -0 0 0 1 0 0 0 0 0 0 0 0 0 0 0 0 0
0 0 0 0 0 0 0 0 0 0 0 0 0 0 0 0 0 0 0 0 0 0 0 0 0 0 0 0 0 0 0 0 0 0 -0 -0 -0 -0 -0 0 0 0 0 0 0 0 0 0 0 0 0 0 0 0
0 0 0 0 0 0 0 0 0 0 0 0 -0 0 0 0 0 0 0 0 0 0 -0 -0 0 0 0 0 -0 0 0 0 -0 0 -0 0 0 0 -0 0 0 0 0 0 0 0 0 0 0 0 0 0 0 0
0 0 0 0 0 0 0 0 0 0 0 -0 -0 0 0 0 0 0 0 0 0 0 0 -0 0 0 0 0 0 0 0 0 0 -0 0 0 -0 -0 -0 0 0 0 0 0 0 0 0 0 0 0 0 0 0 0
0 -0 -0 0 0 0 0 0 0 0 0 0 0 0 0 0 0 0 0 0 0 -0 0 0 0 0 0 0 0 0 0 0 0 0 0 -0 -0 0 -0 0 0 0 -0 0 0 0 0 0 0 0 0 0 0 0
0 0 0 0 0 0 0 0 0 0 0 0 0 0 0 0 0 0 0 -0 0 0 0 0 0 0 0 0 0 0 0 0 0 0 0 -0 -0 -0 0 0 0 -0 0 0 0 0 0 0 0 0 0 0 0 0
0 0 0 0 0 0 0 0 0 0 0 -0 -0 0 0 0 0 0 0 0 0 0 0 0 0 0 0 0 0 0 0 0 0 0 -0 -0 0 -0 -0 0 0 0 0 0 0 0 0 0 0 0 0 0 0 0
0 0 0 0 0 0 0 0 0 0 0 0 0 0 -0 0 0 0 0 0 0 0 0 0 0 0 0 0 0 0 0 0 0 0 0 0 0 0 0 -0 0 0 0 0 0 0 0 0 0 0 0 0 0 0
0 0 0 0 0 0 0 0 -0 0 0 0 -0 0 0 0 0 0 0 0 0 0 0 0 -0 0 0 0 -0 -0 -0 -0 -0 0 0 0 0 0 0 0 0 0 0 0 0 0 0 0 0 0 0 0 0 0
0 0 0 0 0 0 0 0 0 0 0 0 0 0 0 0 0 0 0 0 0 0 0 0 0 0 0 0 0 0 0 0 0 0 0 0 0 0 0 0 0 0 0 0 0 0 0 0 0 0 0 0 0 0
0 0 0 0 0 0 0 0 0 0 0 0 0 0 0 0 0 0 0 0 0 0 0 0 0 0 0 0 0 0 0 0 0 0 0 0 0 0 0 0 0 0 0 0 0 0 0 0 0 0 0 0 0 0
0 0 0 0 0 0 0 0 0 0 0 0 0 0 0 0 0 0 0 0 0 0 0 0 0 0 0 0 0 0 0 0 0 0 0 0 0 0 0 0 0 0 0 0 0 0 0 -0 0 0 0 0 -0 0
0 0 0 0 0 0 0 0 0 0 0 0 -0 0 0 0 0 -0 -0 0 -0 -0 -0 0 0 -0 -0 -0 -0 0 0 0 0 -0 -0 0 0 -0 0 0 0 0 0 0 0 0 -0 0 -0 -0 -0 -0 -0 -0
0 0 0 0 0 0 0 0 0 0 0 -0 0 0 0 0 0 0 0 0 0 0 0 0 -0 -0 0 0 -0 -0 -0 -0 -0 -0 -0 -0 -0 -0 -0 -0 -0 -0 0 -0 0 -0 0 -0 0 0 0 -0 -0 0
0 0 0 0 0 0 -0 -0 -0 -0 -0 -0 0 0 0 0 0 0 0 0 0 0 0 0 0 0 -0 -0 -0 -0 -0 -0 -0 -0 -0 -0 -0 -0 -0 -0 -0 -0 0 -0 0 0 0 0 0 0 -0 0 0 0
0 0 0 0 -0 -0 -0 -0 -0 0 0 0 0 0 0 0 0 0 0 0 0 0 0 0 0 -0 -0 -0 -0 -0 0 0 -0 -0 0 -0 -0 0 0 0 0 -0 -0 -0 0 0 0 0 -0 0 0 0 0 0
0 0 0 -0 -0 -0 0 0 0 0 0 0 0 0 0 0 0 0 0 0 0 0 0 0 -0 0 0 0 -0 -0 -0 -0 0 0 -0 0 -0 -0 0 0 0 0 0 0 -0 0 -0 0 0 0 0 0 0 0
0 0 0 0 0 0 0 0 0 0 0 0 0 0 0 0 0 0 0 0 0 0 0 -0 -0 -0 -0 -0 -0 -0 -0 0 0 0 0 0 0 0 0 0 0 0 0 -0 -0 0 0 0 0 0 0 0 0 0
Wind_Speed_500mb
27 26 24 24 23 22 22 22 22 21 20 14 10 15 19 19 18 15 12 16 13 17 38 39 35 33 31 23 15 17 17 17 15 15 23 16 20 14 12 25 38 30 24 25 35 32 33 25 22 28 11 8 16 22
25 23 22 23 22 23 24 25 24 22 20 20 14 19 19 18 21 19 17 17 16 27 33 40 47 45 43 38 37 16 23 12 8 6 8 10 12 12 14 17 8 23 32 27 25 27 6 49 27 27 12 16 19 27
20 21 22 23 24 24 24 24 24 22 20 19 21 15 19 25 24 18 21 23 25 23 39 33 27 18 26 41 49 45 34 34 20 10 8 7 14 7 13 18 8 11 8 10 14 14 20 36 16 25 17 18 25 31
21 22 24 25 26 26 26 25 24 22 21 19 19 18 19 22 22 23 25 24 20 14 10 18 5 16 31 32 37 52 54 15 10 15 13 7 12 12 17 15 14 15 11 8 11 12 18 27 27 27 22 27 34 35
21 24 27 28 27 25 24 23 22 21 20 18 18 20 20 24 26 22 26 29 26 18 10 34 56 15 13 22 46 43 42 45 39 17 12 6 11 8 14 20 24 23 10 9 10 21 15 32 42 31 35 39 42 45
23 27 29 27 24 23 23 25 27 23 19 17 15 18 20 23 24 17 9 9 9 22 7 7 20 11 10 11 19 37 42 35 37 23 12 12 9 12 7 15 31 30 17 14 13 11 13 29 38 34 39 44 45 42
24 24 21 19 19 20 20 20 22 22 19 18 15 18 19 25 23 15 9 7 7 6 6 12 8 4 10 5 9 19 35 26 21 22 15 13 16 6 5 8 20 26 10 6 9 19 18 39 36 36 40 47 46 44
21 20 20 19 19 19 17 17 18 21 21 18 17 15 19 25 26 21 13 20 29 21 10 7 9 8 5 9 9 14 23 31 23 25 24 26 17 6 8 30 72 43 29 28 7 9 10 33 43 41 48 52 51 49
20 20 20 20 19 19 16 16 21 24 17 19 15 19 24 16 10 6 12 11 15 18 7 9 7 7 7 7 4 14 20 13 18 14 20 17 14 13 26 31 40 54 31 14 15 12 13 30 45 48 54 53 52 50
22 22 21 21 20 19 15 18 24 13 12 9 11 6 6 6 7 12 10 7 10 11 13 9 18 11 12 3 9 9 11 7 10 19 20 18 20 39 52 32 33 47 31 20 27 21 15 29 44 52 56 57 50 50
24 24 23 22 21 18 13 17 20 8 5 4 3 6 11 16 11 7 8 11 11 9 13 13 17 16 11 8 5 7 4 7 7 8 10 10 12 25 39 42 37 32 25 25 34 29 30 30 41 50 50 53 50 49
29 25 22 21 20 17 13 13 8 7 9 8 13 22 12 5 6 5 6 3 10 6 8 3 8 14 12 10 7 1 4 4 5 5 7 7 3 16 16 36 43 44 48 35 31 28 32 30 34 39 49 49 50 50
20 17 17 17 19 15 12 10 14 10 9 8 6 7 5 4 5 7 6 6 3 12 6 13 9 10 13 12 9 5 3 9 13 7 6 6 14 8 5 9 29 37 32 31 27 24 28 24 31 34 37 37 37 44
21 16 16 19 17 11 10 11 13 6 3 4 6 6 7 7 9 8 3 5 8 9 34 36 20 10 11 10 6 8 12 6 6 7 2 7 20 18 13 3 22 26 30 36 25 23 28 27 25 31 30 26 32 38
13 12 16 8 3 6 10 12 10 5 5 6 8 8 13 13 13 11 20 14 10 22 22 16 15 12 6 8 7 8 4 8 4 7 5 19 21 24 21 13 6 25 28 35 26 23 23 22 16 24 38 30 33 30
8 8 5 2 5 5 6 9 9 6 7 7 10 10 16 14 10 3 9 14 24 24 27 11 6 6 3 7 6 5 6 3 7 5 15 20 23 24 24 20 11 9 21 34 33 30 29 27 26 20 25 33 31 38
4 3 2 9 9 10 10 10 8 8 9 9 12 18 25 26 24 17 23 20 19 20 6 5 5 4 7 7 4 8 3 7 14 18 21 20 23 24 20 18 19 6 10 21 24 31 33 31 29 31 35 35 26 30
3 7 5 3 7 7 9 11 6 9 13 20 21 20 17 23 26 27 23 21 12 9 8 2 8 5 6 6 7 6 15 6 8 6 11 12 13 17 18 19 25 18 13 9 21 26 30 32 38 38 35 35 28 26
10 12 6 5 9 1 6 8 9 10 16 21 23 25 24 28 31 32 28 23 21 15 11 7 8 7 2 5 10 9 7 4 3 6 8 12 19 21 21 16 17 32 21 17 14 10 19 27 29 33 30 27 24 29
13 13 12 9 13 5 5 8 10 11 12 12 25 25 22 24 24 24 20 19 17 11 11 8 8 4 3 9 15 16 10 6 9 9 12 15 18 18 24 23 12 15 17 2 11 5 11 18 18 24 27 33 32 29
8 9 11 10 10 14 8 6 10 11 15 13 21 24 28 26 26 25 21 24 23 13 16 25 30 22 10 8 9 16 12 6 9 11 11 16 18 15 16 19 13 11 12 8 4 5 12 14 12 14 32 23 23 25
9 10 8 8 8 8 10 13 12 14 13 26 32 17 18 16 20 17 13 22 20 34 35 35 32 28 27 27 19 10 9 7 5 7 9 12 16 18 19 18 18 11 8 6 6 4 4 12 12 14 18 23 20 24
10 13 8 8 8 8 9 10 9 8 7 7 8 8 7 9 7 7 10 16 16 20 23 26 27 29 31 27 21 17 14 9 6 3 3 6 11 15 14 15 14 15 14 11 11 10 13 18 19 17 22 27 34 37
12 6 8 10 14 9 7 9 12 10 9 8 4 7 8 9 8 9 8 13 15 10 13 16 16 17 21 24 31 29 25 19 15 7 3 5 10 13 12 12 12 12 13 14 13 16 19 27 29 31 34 44 55 48
8 9 8 8 9 8 8 7 10 8 7 6 4 9 7 7 6 7 8 6 9 7 8 10 12 18 18 15 19 28 29 28 21 16 9 3 2 5 7 8 10 12 12 12 16 20 23 31 38 42 45 40 55 53
9 13 14 11 10 12 10 6 5 4 3 6 11 9 8 6 7 6 3 10 9 8 7 7 8 11 13 13 12 14 22 29 26 19 11 8 4 1 2 2 5 9 13 14 19 25 33 43 49 44 48 42 53 51
8 11 14 15 12 8 10 14 13 8 8 7 3 5 4 6 7 7 18 18 31 35 23 16 16 14 12 9 8 12 15 24 26 18 13 13 7 4 2 4 6 8 14 18 24 30 35 38 49 54 39 33 33 33
12 8 14 11 15 16 11 6 7 6 6 6 3 3 5 5 5 14 30 48 40 29 14 8 6 10 11 9 11 16 24 26 24 21 21 17 13 11 14 16 22 27 20 23 30 37 42 42 32 34 33 31 31 27
11 12 12 20 16 10 13 12 7 7 7 4 3 3 6 16 35 57 44 31 15 8 7 3 5 8 14 17 20 21 26 26 27 30 26 25 27 30 34 38 43 51 48 42 39 38 33 23 19 18 20 23 23 22
16 19 12 10 8 10 10 11 12 19 23 17 23 28 38 42 25 14 10 10 11 14 14 13 11 16 23 25 26 25 26 26 26 26 37 31 28 33 35 40 25 49 32 28 26 27 26 27 28 26 24 22 21 20
8 12 11 14 10 16 23 30 41 47 49 41 46 41 34 14 10 14 18 17 13 16 21 25 26 24 23 25 31 31 29 27 34 48 49 37 32 32 33 27 16 20 20 23 27 27 24 23 22 20 18 17 17 16
11 16 13 13 19 22 42 31 21 12 2 9 14 16 12 16 15 14 15 15 20 21 19 22 25 27 26 26 25 26 31 33 33 36 37 28 30 28 27 28 30 31 30 28 27 24 20 17 15 12 12 11 13 13
10 13 15 12 9 8 5 3 4 3 2 5 10 16 16 22 14 9 21 20 21 22 24 25 28 30 32 32 35 39 43 44 41 38 38 37 35 33 29 28 26 24 21 18 16 14 10 8 6 6 8 12 13 16
Wind_Direction_500mb
302 305 309 311 314 315 314 314 312 310 309 301 304 295 290 310 311 309 274 281 244 265 279 269 264 267 267 257 276 304 306 203 255 243 249 232 238 239 263 253 205 200 200 212 224 219 229 147 157 206 247 132 148 176
308 311 313 312 313 312 313 312 311 308 295 286 261 283 308 309 312 317 299 292 272 252 255 281 272 259 254 255 259 263 275 306 303 277 271 294 233 204 268 240 190 228 223 211 223 207 129 173 206 203 197 173 170 167
306 308 310 312 313 313 313 312 312 309 304 288 266 272 289 298 292 289 285 287 296 286 295 271 258 277 255 248 239 252 256 252 260 287 306 274 249 274 244 235 297 236 317 248 185 173 175 178 189 169 165 155 162 167
308 311 310 310 310 311 312 312 311 305 302 295 278 260 282 290 289 284 276 290 278 277 279 302 311 246 279 261 236 228 236 266 281 272 263 271 261 234 226 291 280 300 322 244 216 136 150 181 180 176 160 144 151 157
307 308 306 305 303 304 307 310 310 303 297 298 282 267 272 286 298 297 282 277 265 243 290 298 303 299 274 256 229 227 228 233 244 266 239 236 291 273 252 258 260 245 276 241 217 184 165 181 179 168 156 153 152 152
301 306 307 304 302 304 306 315 321 303 290 294 290 271 264 281 302 319 264 267 253 222 277 289 309 299 291 273 211 218 218 223 220 225 250 244 267 243 244 241 241 262 260 244 293 193 109 162 178 170 157 155 152 152
309 311 311 311 307 304 306 317 320 323 306 287 292 293 276 278 282 258 285 314 97 113 263 278 268 269 302 199 185 200 198 198 203 230 229 248 217 126 261 259 228 224 173 351 277 184 87 158 166 164 160 154 150 149
311 310 309 309 308 307 308 317 312 311 311 298 279 296 285 284 285 282 280 265 260 269 262 273 274 249 225 238 154 173 186 195 213 225 239 242 145 162 263 231 250 272 285 295 329 150 288 171 155 162 158 155 152 153
307 308 306 305 306 308 303 312 309 312 302 304 277 289 287 263 248 270 258 243 239 220 264 240 284 341 336 300 120 179 189 192 222 217 233 223 201 209 231 228 242 244 257 298 345 216 212 168 166 166 167 164 159 158
301 298 302 303 302 303 299 307 316 311 323 308 306 261 251 226 282 281 244 226 209 218 226 255 270 271 297 279 213 202 208 245 203 211 208 221 239 231 232 238 224 239 263 249 253 238 199 183 181 175 177 176 171 167
295 294 297 297 295 298 287 309 322 306 7 7 271 257 276 288 299 240 244 205 188 217 214 242 247 259 271 247 254 172 250 261 237 174 211 213 231 230 235 231 220 221 244 255 239 249 218 197 192 183 183 183 180 177
294 290 288 290 289 289 270 308 322 312 305 295 293 300 300 274 232 267 273 212 230 238 181 250 253 234 253 227 267 354 263 288 257 157 235 241 195 180 252 228 224 222 236 242 222 213 209 204 191 189 181 181 188 188
295 288 288 291 292 274 256 288 270 288 284 267 274 254 245 253 254 229 245 210 239 5 7 323 300 261 211 214 262 197 218 253 318 212 227 289 52 46 348 235 210 214 215 217 212 208 197 177 178 183 177 183 186 190
284 286 293 294 285 244 241 283 247 273 309 261 253 250 231 203 238 198 203 250 269 282 315 305 280 242 222 204 226 237 186 209 234 230 140 32 10 17 8 325 203 200 196 196 193 177 170 170 169 179 189 191 194 196
274 286 302 299 235 260 259 275 219 270 238 252 235 239 226 238 227 269 299 281 312 306 289 273 241 237 230 254 216 275 203 243 278 24 24 11 348 354 357 5 200 203 203 198 192 180 174 168 176 205 208 206 211 203
276 328 349 285 209 270 261 231 202 226 256 242 234 273 258 267 282 317 271 301 319 318 313 268 284 266 260 302 259 252 291 359 18 24 13 353 354 352 346 355 348 213 199 202 208 203 201 204 209 204 204 212 224 224
289 164 332 302 282 263 225 189 202 235 251 243 243 249 268 279 278 267 290 288 309 316 328 310 268 334 298 265 247 355 334 27 26 14 350 354 344 344 341 1 8 15 187 193 202 210 215 217 215 210 212 224 221 210
207 218 351 38 107 111 178 191 247 252 247 249 259 270 261 264 273 271 262 273 284 284 299 340 308 255 228 276 150 198 262 291 125 213 306 339 347 350 358 17 31 51 77 152 205 207 213 212 206 206 207 208 214 200
230 222 205 175 173 180 196 227 235 265 255 275 278 277 273 275 269 268 265 263 253 255 276 240 245 240 280 11 2 26 45 108 26 352 336 0 8 10 19 28 41 24 45 66 88 142 194 197 195 198 192 191 198 189
237 232 220 227 211 256 243 225 220 262 276 308 291 280 271 266 272 272 257 240 218 216 226 232 248 323 305 55 30 17 3 5 4 24 40 32 17 18 21 31 65 8 15 52 290 192 170 166 162 174 181 182 179 176
234 203 209 220 217 249 277 261 241 243 275 269 284 298 284 272 256 257 244 224 214 225 230 244 255 261 269 273 328 358 4 359 10 12 12 16 14 24 30 30 61 148 182 304 319 161 139 151 162 163 175 171 174 168
195 185 179 203 236 231 256 238 256 291 270 275 290 260 271 269 263 239 225 210 237 240 242 249 251 251 250 263 267 281 317 334 309 345 9 20 22 25 23 24 34 45 83 111 126 73 130 192 204 166 162 176 168 164
185 203 209 234 235 238 254 218 248 253 256 263 262 257 263 281 257 185 237 230 247 251 247 246 250 247 247 247 254 241 250 252 256 299 355 13 14 15 19 22 35 41 45 62 83 114 128 134 168 188 170 171 169 141
192 185 230 211 211 259 246 235 220 251 250 248 257 285 267 247 242 241 252 249 230 224 234 237 233 232 233 236 231 229 222 217 224 249 310 359 8 12 29 46 49 49 51 58 84 106 105 111 112 116 124 128 131 118
184 226 224 228 231 249 249 245 232 240 257 10 299 245 241 247 250 241 240 242 213 227 236 222 222 219 229 231 227 221 215 208 210 223 234 248 346 11 28 48 61 65 66 82 99 108 113 126 126 122 126 134 127 125
230 208 203 208 220 226 210 251 234 243 277 248 250 283 313 288 256 252 49 28 359 346 329 296 261 232 230 235 232 211 206 203 203 213 212 206 187 321 355 43 83 59 69 97 116 119 121 123 122 120 123 128 116 113
237 216 219 238 257 283 285 264 272 253 244 246 244 341 314 273 279 15 357 358 349 341 317 289 275 247 251 229 225 203 186 186 189 191 168 157 142 83 65 127 97 104 118 113 113 122 130 127 132 135 130 125 130 137
249 256 226 236 227 241 269 292 254 237 235 226 306 312 298 291 298 315 305 305 307 316 302 308 261 234 216 199 172 165 158 157 150 140 135 123 101 95 102 103 123 122 120 114 107 112 110 108 122 134 132 136 148 151
236 233 250 253 237 232 227 228 254 229 241 229 219 201 272 252 272 297 302 305 313 307 304 220 179 166 153 145 146 149 159 161 160 152 143 130 115 104 109 120 120 113 107 110 122 127 126 134 144 140 145 142 146 150
245 224 238 247 237 226 226 226 272 287 305 278 292 287 283 290 311 335 12 54 62 60 56 64 88 133 144 141 139 134 133 143 160 154 131 119 129 138 145 130 95 109 122 132 138 135 126 121 116 116 120 132 144 150
242 211 236 240 257 260 278 288 297 294 288 265 265 257 256 283 99 79 62 63 63 72 70 72 79 99 129 141 138 135 125 122 138 141 126 119 119 128 134 139 146 147 133 129 129 125 122 121 121 122 124 128 138 147
216 220 238 269 287 289 297 289 267 252 67 179 184 197 190 149 103 62 51 71 84 77 67 73 82 84 96 108 120 132 131 128 135 145 146 133 136 136 136 130 126 128 129 129 129 126 119 113 108 111 123 135 145 150
234 252 262 295 267 250 249 79 43 221 265 118 124 113 94 87 80 67 58 93 80 75 75 86 94 101 104 110 115 119 125 131 135 137 137 136 134 131 129 129 129 130 136 137 136 132 126 112 111 120 139 145 144 146
Wind_Speed_850mb
27 26 24 24 23 22 22 22 22 21 20 14 10 15 19 19 18 15 12 16 13 17 38 39 35 33 31 23 15 17 17 17 15 15 23 16 20 14 12 25 38 30 24 25 35 32 33 25 22 28 11 8 16 22
25 23 22 23 22 23 24 25 24 22 20 20 14 19 19 18 21 19 17 17 16 27 33 40 47 45 43 38 37 16 23 12 8 6 8 10 12 12 14 17 8 23 32 27 25 27 6 49 27 27 12 16 19 27
20 21 22 23 24 24 24 24 24 22 20 19 21 15 19 25 24 18 21 23 25 23 39 33 27 18 26 41 49 45 34 34 20 10 8 7 14 7 13 18 8 11 8 10 14 14 20 36 16 25 17 18 25 31
21 22 24 25 26 26 26 25 24 22 21 19 19 18 19 22 22 23 25 24 20 14 10 18 5 16 31 32 37 52 54 15 10 15 13 7 12 12 17 15 14 15 11 8 11 12 18 27 27 27 22 27 34 35
21 24 27 28 27 25 24 23 22 21 20 18 18 20 20 24 26 22 26 29 26 18 10 34 56 15 13 22 46 43 42 45 39 17 12 6 11 8 14 20 24 23 10 9 10 21 15 32 42 31 35 39 42 45
23 27 29 27 24 23 23 25 27 23 19 17 15 18 20 23 24 17 9 9 9 22 7 7 20 11 10 11 19 37 42 35 37 23 12 12 9 12 7 15 31 30 17 14 13 11 13 29 38 34 39 44 45 42
24 24 21 19 19 20 20 20 22 22 19 18 15 18 19 25 23 15 9 7 7 6 6 12 8 4 10 5 9 19 35 26 21 22 15 13 16 6 5 8 20 26 10 6 9 19 18 39 36 36 40 47 46 44
21 20 20 19 19 19 17 17 18 21 21 18 17 15 19 25 26 21 13 20 29 21 10 7 9 8 5 9 9 14 23 31 23 25 24 26 17 6 8 30 72 43 29 28 7 9 10 33 43 41 48 52 51 49
20 20 20 20 19 19 16 16 21 24 17 19 15 19 24 16 10 6 12 11 15 18 7 9 7 7 7 7 4 14 20 13 18 14 20 17 14 13 26 31 40 54 31 14 15 12 13 30 45 48 54 53 52 50
22 22 21 21 20 19 15 18 24 13 12 9 11 6 6 6 7 12 10 7 10 11 13 9 18 11 12 3 9 9 11 7 10 19 20 18 20 39 52 32 33 47 31 20 27 21 15 29 44 52 56 57 50 50
24 24 23 22 21 18 13 17 20 8 5 4 3 6 11 16 11 7 8 11 11 9 13 13 17 16 11 8 5 7 4 7 7 8 10 10 12 25 39 42 37 32 25 25 34 29 30 30 41 50 50 53 50 49
29 25 22 21 20 17 13 13 8 7 9 8 13 22 12 5 6 5 6 3 10 6 8 3 8 14 12 10 7 1 4 4 5 5 7 7 3 16 16 36 43 44 48 35 31 28 32 30 34 39 49 49 50 50
20 17 17 17 19 15 12 10 14 10 9 8 6 7 5 4 5 7 6 6 3 12 6 13 9 10 13 12 9 5 3 9 13 7 6 6 14 8 5 9 29 37 32 31 27 24 28 24 31 34 37 37 37 44
21 16 16 19 17 11 10 11 13 6 3 4 6 6 7 7 9 8 3 5 8 9 34 36 20 10 11 10 6 8 12 6 6 7 2 7 20 18 13 3 22 26 30 36 25 23 28 27 25 31 30 26 32 38
13 12 16 8 3 6 10 12 10 5 5 6 8 8 13 13 13 11 20 14 10 22 22 16 15 12 6 8 7 8 4 8 4 7 5 19 21 24 21 13 6 25 28 35 26 23 23 22 16 24 38 30 33 30
8 8 5 2 5 5 6 9 9 6 7 7 10 10 16 14 10 3 9 14 24 24 27 11 6 6 3 7 6 5 6 3 7 5 15 20 23 24 24 20 11 9 21 34 33 30 29 27 26 20 25 33 31 38
4 3 2 9 9 10 10 10 8 8 9 9 12 18 25 26 24 17 23 20 19 20 6 5 5 4 7 7 4 8 3 7 14 18 21 20 23 24 20 18 19 6 10 21 24 31 33 31 29 31 35 35 26 30
3 7 5 3 7 7 9 11 6 9 13 20 21 20 17 23 26 27 23 21 12 9 8 2 8 5 6 6 7 6 15 6 8 6 11 12 13 17 18 19 25 18 13 9 21 26 30 32 38 38 35 35 28 26
10 12 6 5 9 1 6 8 9 10 16 21 23 25 24 28 31 32 28 23 21 15 11 7 8 7 2 5 10 9 7 4 3 6 8 12 19 21 21 16 17 32 21 17 14 10 19 27 29 33 30 27 24 29
13 13 12 9 13 5 5 8 10 11 12 12 25 25 22 24 24 24 20 19 17 11 11 8 8 4 3 9 15 16 10 6 9 9 12 15 18 18 24 23 12 15 17 2 11 5 11 18 18 24 27 33 32 29
8 9 11 10 10 14 8 6 10 11 15 13 21 24 28 26 26 25 21 24 23 13 16 25 30 22 10 8 9 16 12 6 9 11 11 16 18 15 16 19 13 11 12 8 4 5 12 14 12 14 32 23 23 25
9 10 8 8 8 8 10 13 12 14 13 26 32 17 18 16 20 17 13 22 20 34 35 35 32 28 27 27 19 10 9 7 5 7 9 12 16 18 19 18 18 11 8 6 6 4 4 12 12 14 18 23 20 24
10 13 8 8 8 8 9 10 9 8 7 7 8 8 7 9 7 7 10 16 16 20 23 26 27 29 31 27 21 17 14 9 6 3 3 6 11 15 14 15 14 15 14 11 11 10 13 18 19 17 22 27 34 37
12 6 8 10 14 9 7 9 12 10 9 8 4 7 8 9 8 9 8 13 15 10 13 16 16 17 21 24 31 29 25 19 15 7 3 5 10 13 12 12 12 12 13 14 13 16 19 27 29 31 34 44 55 48
8 9 8 8 9 8 8 7 10 8 7 6 4 9 7 7 6 7 8 6 9 7 8 10 12 18 18 15 19 28 29 28 21 16 9 3 2 5 7 8 10 12 12 12 16 20 23 31 38 42 45 40 55 53
9 13 14 11 10 12 10 6 5 4 3 6 11 9 8 6 7 6 3 10 9 8 7 7 8 11 13 13 12 14 22 29 26 19 11 8 4 1 2 2 5 9 13 14 19 25 33 43 49 44 48 42 53 51
8 11 14 15 12 8 10 14 13 8 8 7 3 5 4 6 7 7 18 18 31 35 23 16 16 14 12 9 8 12 15 24 26 18 13 13 7 4 2 4 6 8 14 18 24 30 35 38 49 54 39 33 33 33
12 8 14 11 15 16 11 6 7 6 6 6 3 3 5 5 5 14 30 48 40 29 14 8 6 10 11 9 11 16 24 26 24 21 21 17 13 11 14 16 22 27 20 23 30 37 42 42 32 34 33 31 31 27
11 12 12 20 16 10 13 12 7 7 7 4 3 3 6 16 35 57 44 31 15 8 7 3 5 8 14 17 20 21 26 26 27 30 26 25 27 30 34 38 43 51 48 42 39 38 33 23 19 18 20 23 23 22
16 19 12 10 8 10 10 11 12 19 23 17 23 28 38 42 25 14 10 10 11 14 14 13 11 16 23 25 26 25 26 26 26 26 37 31 28 33 35 40 25 49 32 28 26 27 26 27 28 26 24 22 21 20
8 12 11 14 10 16 23 30 41 47 49 41 46 41 34 14 10 14 18 17 13 16 21 25 26 24 23 25 31 31 29 27 34 48 49 37 32 32 33 27 16 20 20 23 27 27 24 23 22 20 18 17 17 16
11 16 13 13 19 22 42 31 21 12 2 9 14 16 12 16 15 14 15 15 20 21 19 22 25 27 26 26 25 26 31 33 33 36 37 28 30 28 27 28 30 31 30 28 27 24 20 17 15 12 12 11 13 13
10 13 15 12 9 8 5 3 4 3 2 5 10 16 16 22 14 9 21 20 21 22 24 25 28 30 32 32 35 39 43 44 41 38 38 37 35 33 29 28 26 24 21 18 16 14 10 8 6 6 8 12 13 16
Wind_Direction_850mb
302 305 309 311 314 315 314 314 312 310 309 301 304 295 290 310 311 309 274 281 244 265 279 269 264 267 267 257 276 304 306 203 255 243 249 232 238 239 263 253 205 200 200 212 224 219 229 147 157 206 247 132 148 176
308 311 313 312 313 312 313 312 311 308 295 286 261 283 308 309 312 317 299 292 272 252 255 281 272 259 254 255 259 263 275 306 303 277 271 294 233 204 268 240 190 228 223 211 223 207 129 173 206 203 197 173 170 167
306 308 310 312 313 313 313 312 312 309 304 288 266 272 289 298 292 289 285 287 296 286 295 271 258 277 255 248 239 252 256 252 260 287 306 274 249 274 244 235 297 236 317 248 185 173 175 178 189 169 165 155 162 167
308 311 310 310 310 311 312 312 311 305 302 295 278 260 282 290 289 284 276 290 278 277 279 302 311 246 279 261 236 228 236 266 281 272 263 271 261 234 226 291 280 300 322 244 216 136 150 181 180 176 160 144 151 157
307 308 306 305 303 304 307 310 310 303 297 298 282 267 272 286 298 297 282 277 265 243 290 298 303 299 274 256 229 227 228 233 244 266 239 236 291 273 252 258 260 245 276 241 217 184 165 181 179 168 156 153 152 152
301 306 307 304 302 304 306 315 321 303 290 294 290 271 264 281 302 319 264 267 253 222 277 289 309 299 291 273 211 218 218 223 220 225 250 244 267 243 244 241 241 262 260 244 293 193 109 162 178 170 157 155 152 152
309 311 311 311 307 304 306 317 320 323 306 287 292 293 276 278 282 258 285 314 97 113 263 278 268 269 302 199 185 200 198 198 203 230 229 248 217 126 261 259 228 224 173 351 277 184 87 158 166 164 160 154 150 149
311 310 309 309 308 307 308 317 312 311 311 298 279 296 285 284 285 282 280 265 260 269 262 273 274 249 225 238 154 173 186 195 213 225 239 242 145 162 263 231 250 272 285 295 329 150 288 171 155 162 158 155 152 153
307 308 306 305 306 308 303 312 309 312 302 304 277 289 287 263 248 270 258 243 239 220 264 240 284 341 336 300 120 179 189 192 222 217 233 223 201 209 231 228 242 244 257 298 345 216 212 168 166 166 167 164 159 158
301 298 302 303 302 303 299 307 316 311 323 308 306 261 251 226 282 281 244 226 209 218 226 255 270 271 297 279 213 202 208 245 203 211 208 221 239 231 232 238 224 239 263 249 253 238 199 183 181 175 177 176 171 167
295 294 297 297 295 298 287 309 322 306 7 7 271 257 276 288 299 240 244 205 188 217 214 242 247 259 271 247 254 172 250 261 237 174 211 213 231 230 235 231 220 221 244 255 239 249 218 197 192 183 183 183 180 177
294 290 288 290 289 289 270 308 322 312 305 295 293 300 300 274 232 267 273 212 230 238 181 250 253 234 253 227 267 354 263 288 257 157 235 241 195 180 252 228 224 222 236 242 222 213 209 204 191 189 181 181 188 188
295 288 288 291 292 274 256 288 270 288 284 267 274 254 245 253 254 229 245 210 239 5 7 323 300 261 211 214 262 197 218 253 318 212 227 289 52 46 348 235 210 214 215 217 212 208 197 177 178 183 177 183 186 190
284 286 293 294 285 244 241 283 247 273 309 261 253 250 231 203 238 198 203 250 269 282 315 305 280 242 222 204 226 237 186 209 234 230 140 32 10 17 8 325 203 200 196 196 193 177 170 170 169 179 189 191 194 196
274 286 302 299 235 260 259 275 219 270 238 252 235 239 226 238 227 269 299 281 312 306 289 273 241 237 230 254 216 275 203 243 278 24 24 11 348 354 357 5 200 203 203 198 192 180 174 168 176 205 208 206 211 203
276 328 349 285 209 270 261 231 202 226 256 242 234 273 258 267 282 317 271 301 319 318 313 268 284 266 260 302 259 252 291 359 18 24 13 353 354 352 346 355 348 213 199 202 208 203 201 204 209 204 204 212 224 224
289 164 332 302 282 263 225 189 202 235 251 243 243 249 268 279 278 267 290 288 309 316 328 310 268 334 298 265 247 355 334 27 26 14 350 354 344 344 341 1 8 15 187 193 202 210 215 217 215 210 212 224 221 210
207 218 351 38 107 111 178 191 247 252 247 249 259 270 261 264 273 271 262 273 284 284 299 340 308 255 228 276 150 198 262 291 125 213 306 339 347 350 358 17 31 51 77 152 205 207 213 212 206 206 207 208 214 200
230 222 205 175 173 180 196 227 235 265 255 275 278 277 273 275 269 268 265 263 253 255 276 240 245 240 280 11 2 26 45 108 26 352 336 0 8 10 19 28 41 24 45 66 88 142 194 197 195 198 192 191 198 189
237 232 220 227 211 256 243 225 220 262 276 308 291 280 271 266 272 272 257 240 218 216 226 232 248 323 305 55 30 17 3 5 4 24 40 32 17 18 21 31 65 8 15 52 290 192 170 166 162 174 181 182 179 176
234 203 209 220 217 249 277 261 241 243 275 269 284 298 284 272 256 257 244 224 214 225 230 244 255 261 269 273 328 358 4 359 10 12 12 16 14 24 30 30 61 148 182 304 319 161 139 151 162 163 175 171 174 168
195 185 179 203 236 231 256 238 256 291 270 275 290 260 271 269 263 239 225 210 237 240 242 249 251 251 250 263 267 281 317 334 309 345 9 20 22 25 23 24 34 45 83 111 126 73 130 192 204 166 162 176 168 164
185 203 209 234 235 238 254 218 248 253 256 263 262 257 263 281 257 185 237 230 247 251 247 246 250 247 247 247 254 241 250 252 256 299 355 13 14 15 19 22 35 41 45 62 83 114 128 134 168 188 170 171 169 141
192 185 230 211 211 259 246 235 220 251 250 248 257 285 267 247 242 241 252 249 230 224 234 237 233 232 233 236 231 229 222 217 224 249 310 359 8 12 29 46 49 49 51 58 84 106 105 111 112 116 124 128 131 118
184 226 224 228 231 249 249 245 232 240 257 10 299 245 241 247 250 241 240 242 213 227 236 222 222 219 229 231 227 221 215 208 210 223 234 248 346 11 28 48 61 65 66 82 99 108 113 126 126 122 126 134 127 125
230 208 203 208 220 226 210 251 234 243 277 248 250 283 313 288 256 252 49 28 359 346 329 296 261 232 230 235 232 211 206 203 203 213 212 206 187 321 355 43 83 59 69 97 116 119 121 123 122 120 123 128 116 113
237 216 219 238 257 283 285 264 272 253 244 246 244 341 314 273 279 15 357 358 349 341 317 289 275 247 251 229 225 203 186 186 189 191 168 157 142 83 65 127 97 104 118 113 113 122 130 127 132 135 130 125 130 137
249 256 226 236 227 241 269 292 254 237 235 226 306 312 298 291 298 315 305 305 307 316 302 308 261 234 216 199 172 165 158 157 150 140 135 123 101 95 102 103 123 122 120 114 107 112 110 108 122 134 132 136 148 151
236 233 250 253 237 232 227 228 254 229 241 229 219 201 272 252 272 297 302 305 313 307 304 220 179 166 153 145 146 149 159 161 160 152 143 130 115 104 109 120 120 113 107 110 122 127 126 134 144 140 145 142 146 150
245 224 238 247 237 226 226 226 272 287 305 278 292 287 283 290 311 335 12 54 62 60 56 64 88 133 144 141 139 134 133 143 160 154 131 119 129 138 145 130 95 109 122 132 138 135 126 121 116 116 120 132 144 150
242 211 236 240 257 260 278 288 297 294 288 265 265 257 256 283 99 79 62 63 63 72 70 72 79 99 129 141 138 135 125 122 138 141 126 119 119 128 134 139 146 147 133 129 129 125 122 121 121 122 124 128 138 147
216 220 238 269 287 289 297 289 267 252 67 179 184 197 190 149 103 62 51 71 84 77 67 73 82 84 96 108 120 132 131 128 135 145 146 133 136 136 136 130 126 128 129 129 129 126 119 113 108 111 123 135 145 150
234 252 262 295 267 250 249 79 43 221 265 118 124 113 94 87 80 67 58 93 80 75 75 86 94 101 104 110 115 119 125 131 135 137 137 136 134 131 129 129 129 130 136 137 136 132 126 112 111 120 139 145 144 146